Weather History for Aberdeen, SD

Change the Weather History Date:

Wednesday, September 4, 2013

  Actual Average Record
Temperature  
Mean Temperature 72 °F 64 °F  
Max Temperature 84 °F 77 °F 100 °F (1931)
Min Temperature 59 °F 51 °F 30 °F (1961)
Degree Days  
Heating Degree Days 0 4  
Month to date heating degree days 6 14  
Since 1 July heating degree days 57 65  
Cooling Degree Days 7 3  
Month to date cooling degree days 10 12  
Year to date cooling degree days 499 495  
Growing Degree Days 22 (Base 50)    
Moisture  
Dew Point 61 °F    
Average Humidity 78    
Maximum Humidity 100    
Minimum Humidity 55    
Precipitation  
Precipitation 0.00 in 0.08 in 1.75 in (1971)
Month to date precipitation 0.00 0.30  
Year to date precipitation 13.76 16.59  
Sea Level Pressure  
Sea Level Pressure 30.06 in    
Wind  
Wind Speed 10 mph (NE)    
Max Wind Speed 20 mph    
Max Gust Speed 23 mph    
Visibility 10 miles    
Events      
T = Trace of Precipitation, MM = Missing Value Source: NWS Daily Summary

Daily Weather History Graph

Daily Weather History Graph

Search for Another Location

Airport:

Trip Planner

Search our weather history database for the weather conditions in past years. The results will help you decide how hot, cold, wet, or windy it might be!

Date:

Astronomy

Sep. 04, 2013 Rise Set
Actual Time 6:59 AM CDT 8:05 PM CDT
Civil Twilight 6:28 AM CDT 8:35 PM CDT
Nautical Twilight 5:52 AM CDT 9:11 PM CDT
Astronomical Twilight 5:13 AM CDT 9:49 PM CDT
Moon 6:12 AM CDT (9/4) 7:23 PM CDT (9/4)
Length of Visible Light 14h 06m
Length of Day
13h 06m
Waning Crescent, 1% of the Moon is Illuminated
Sep 4
Waning Crescent
Sep 5
New
Sep 12
First Quarter
Sep 19
Full
Sep 26
Last Quarter

Hourly Weather History & Observations

Time (CDT) Temp. Heat Index Dew Point Humidity Pressure Visibility Wind Dir Wind Speed Gust Speed Precip Events Conditions
12:53 AM 63.0 °F - 61.0 °F 93% 30.00 in 10.0 mi NNE 4.6 mph - N/A   Clear
1:53 AM 61.0 °F - 60.1 °F 97% 30.01 in 10.0 mi Calm Calm - N/A   Clear
2:53 AM 62.1 °F - 60.1 °F 93% 30.01 in 10.0 mi ENE 4.6 mph - N/A   Clear
3:53 AM 60.1 °F - 59.0 °F 96% 30.01 in 10.0 mi ENE 3.5 mph - N/A   Clear
4:53 AM 63.0 °F - 62.1 °F 97% 30.02 in 10.0 mi ENE 9.2 mph - N/A   Clear
5:53 AM 63.0 °F - 62.1 °F 97% 30.04 in 10.0 mi ENE 5.8 mph - N/A   Clear
6:53 AM 61.0 °F - 59.0 °F 93% 30.06 in 10.0 mi NE 9.2 mph - N/A   Clear
7:53 AM 59.0 °F - 55.0 °F 87% 30.09 in 10.0 mi NE 9.2 mph - N/A   Clear
8:53 AM 61.0 °F - 54.0 °F 78% 30.10 in 10.0 mi NE 9.2 mph - N/A   Clear
9:53 AM 64.9 °F - 55.0 °F 70% 30.10 in 10.0 mi NNE 10.4 mph - N/A   Clear
10:53 AM 69.1 °F - 57.9 °F 68% 30.10 in 10.0 mi NNE 10.4 mph - N/A   Clear
11:53 AM 75.0 °F - 60.1 °F 60% 30.10 in 10.0 mi NNE 9.2 mph - N/A   Clear
12:53 PM 78.1 °F - 63.0 °F 60% 30.09 in 10.0 mi NE 10.4 mph - N/A   Clear
1:53 PM 81.0 °F 82.5 °F 64.0 °F 56% 30.07 in 10.0 mi NE 11.5 mph - N/A   Clear
2:53 PM 82.9 °F 84.6 °F 64.9 °F 54% 30.06 in 10.0 mi NE 13.8 mph - N/A   Clear
3:53 PM 82.0 °F 83.4 °F 64.0 °F 54% 30.06 in 10.0 mi NE 16.1 mph - N/A   Clear
4:53 PM 82.0 °F 83.8 °F 64.9 °F 56% 30.06 in 10.0 mi NE 16.1 mph - N/A   Clear
5:53 PM 80.1 °F 81.9 °F 64.9 °F 60% 30.05 in 10.0 mi ENE 16.1 mph - N/A   Clear
6:53 PM 78.1 °F - 64.0 °F 62% 30.06 in 10.0 mi ENE 12.7 mph 21.9 mph N/A   Clear
7:53 PM 75.0 °F - 64.0 °F 69% 30.07 in 10.0 mi NE 9.2 mph - N/A   Clear
8:53 PM 72.0 °F - 62.1 °F 71% 30.09 in 10.0 mi ENE 9.2 mph - N/A   Clear
9:53 PM 71.1 °F - 62.1 °F 73% 30.11 in 10.0 mi NE 9.2 mph - N/A   Clear
10:53 PM 68.0 °F - 55.0 °F 63% 30.12 in 10.0 mi ENE 10.4 mph - N/A   Clear
11:53 PM 66.0 °F - 54.0 °F 65% 30.11 in 10.0 mi NE 9.2 mph - N/A   Clear